Location: Cul de Sac
(18.0387°N, 63.0654°W)
Time: 08:55:04
(UTC+00:00)

Okean O Rocket - Pass Details

Date: 29 October 2020
Orbit: 623 x 644 km, 98.2° (Epoch: 26 November)

Event Time Altitude Azimuth Distance (km) Brightness Sun altitude
Rises 22:06:11 0° 174° (S) 2,918 5.1 -6.6°
Reaches altitude 10° 22:08:24 10° 177° (S) 2,008 4.3 -7.1°
Maximum altitude 22:12:43 63° 258° (WSW) 701 2.2 -8.1°
Drops below altitude 10° 22:17:02 10° 340° (NNW) 1,999 4.3 -9.1°
Sets 22:19:14 0° 344° (NNW) 2,904 5.1 -9.7°
